Georgetown, SC

7:05 AM EST on February 22, 2017 (GMT -0500)
Georgetown County

Weather History for KGGE - March, 2014

Change the Weather History Date:

Wednesday, March 12, 2014

  Actual Average Record
Temperature  
Mean Temperature 66 °F -  
Max Temperature 73 °F 70 °F 77 °F (2016)
Min Temperature 55 °F 44 °F 32 °F (2011)
Cooling Degree Days 1    
Growing Degree Days 16 (Base 50)    
Moisture  
Dew Point 57 °F    
Average Humidity 74    
Maximum Humidity 100    
Minimum Humidity 54    
Precipitation  
Precipitation 0.07 in - - ()
Sea Level Pressure  
Sea Level Pressure 29.61 in    
Wind  
Wind Speed 12 mph (SW)    
Max Wind Speed 30 mph    
Max Gust Speed 40 mph    
Visibility 10 miles    
Events Rain    
Averages and records for this station are not official NWS values.
T = Trace of Precipitation, MM = Missing Value Source: NWS Daily Summary

Daily Weather History Graph

Daily Weather History Graph

Search for Another Location

Airport or City:

Trip Planner

Search our weather history database for the weather conditions in past years. The results will help you decide how hot, cold, wet, or windy it might be!

Date:

Astronomy

Mar. 12, 2014 Rise Set
Actual Time 7:31 AM EDT 7:22 PM EDT
Civil Twilight 7:06 AM EDT 7:47 PM EDT
Nautical Twilight 6:38 AM EDT 8:16 PM EDT
Astronomical Twilight 6:09 AM EDT 8:45 PM EDT
Moon 4:00 PM EDT (3/12) 4:53 AM EDT (3/12)
Length of Visible Light 12h 40m
Length of Day
11h 51m
Waxing Gibbous, 85% of the Moon is Illuminated
Mar 12
Waxing Gibbous
Mar 16
Full
Mar 23
Last Quarter
Mar 30
New
Apr 7
First Quarter

Hourly Weather History & Observations

Time (EDT) Temp. Dew Point Humidity Pressure Visibility Wind Dir Wind Speed Gust Speed Precip Events Conditions
12:15 AM 64.4 °F 51.8 °F 64% 29.77 in 10.0 mi SW 12.7 mph 19.6 mph N/A   Clear
12:35 AM 64.4 °F 51.8 °F 64% 29.76 in 10.0 mi SW 11.5 mph 17.3 mph N/A   Clear
12:55 AM 64.4 °F 51.8 °F 64% 29.76 in 10.0 mi SW 11.5 mph 16.1 mph N/A   Clear
1:15 AM 64.4 °F 51.8 °F 64% 29.76 in 10.0 mi SW 10.4 mph - N/A   Clear
1:35 AM 64.4 °F 53.6 °F 68% 29.75 in 10.0 mi SW 9.2 mph - N/A   Clear
1:55 AM 64.4 °F 53.6 °F 68% 29.75 in 10.0 mi SW 8.1 mph - N/A   Clear
2:15 AM 64.4 °F 53.6 °F 68% 29.74 in 10.0 mi SW 8.1 mph - N/A   Clear
2:35 AM 64.4 °F 53.6 °F 68% 29.73 in 10.0 mi SW 6.9 mph - N/A   Clear
2:55 AM 62.6 °F 53.6 °F 72% 29.72 in 10.0 mi SW 5.8 mph - N/A   Clear
3:15 AM 62.6 °F 53.6 °F 72% 29.71 in 10.0 mi SW 5.8 mph - N/A   Clear
3:35 AM 62.6 °F 53.6 °F 72% 29.71 in 10.0 mi SW 5.8 mph - N/A   Scattered Clouds
3:55 AM 62.6 °F 53.6 °F 72% 29.71 in 10.0 mi SW 6.9 mph - N/A   Clear
4:15 AM 62.6 °F 53.6 °F 72% 29.70 in 10.0 mi SW 6.9 mph - N/A   Scattered Clouds
4:35 AM 62.6 °F 53.6 °F 72% 29.70 in 10.0 mi SW 6.9 mph - N/A   Scattered Clouds
4:55 AM 62.6 °F 53.6 °F 72% 29.70 in 10.0 mi SW 8.1 mph - N/A   Scattered Clouds
5:15 AM 64.4 °F 53.6 °F 68% 29.70 in 10.0 mi SW 8.1 mph - N/A   Scattered Clouds
5:35 AM 62.6 °F 55.4 °F 77% 29.70 in 10.0 mi SW 10.4 mph - N/A Rain Light Rain
5:55 AM 60.8 °F 55.4 °F 82% 29.71 in 10.0 mi SW 9.2 mph - N/A   Light Drizzle
6:15 AM 60.8 °F 57.2 °F 88% 29.72 in 10.0 mi SW 10.4 mph - N/A Rain Rain
6:35 AM 60.8 °F 57.2 °F 88% 29.73 in 10.0 mi WSW 15.0 mph 20.7 mph 0.01 in Rain Light Rain
6:55 AM 59.0 °F 59.0 °F 100% 29.74 in 10.0 mi WSW 10.4 mph - 0.03 in Rain Light Rain
7:15 AM 59.0 °F 59.0 °F 100% 29.73 in 10.0 mi WSW 8.1 mph - 0.01 in Rain Rain
7:35 AM 59.0 °F 59.0 °F 100% 29.71 in 10.0 mi SW 5.8 mph - 0.02 in Rain Light Rain
7:55 AM 59.0 °F 59.0 °F 100% 29.70 in 10.0 mi SW 5.8 mph - 0.02 in   Drizzle
8:15 AM 59.0 °F 59.0 °F 100% 29.68 in 7.0 mi SSW 4.6 mph - 0.01 in Rain Rain
8:35 AM 59.0 °F 59.0 °F 100% 29.68 in 7.0 mi South 5.8 mph - 0.02 in   Light Drizzle
8:55 AM 59.0 °F 59.0 °F 100% 29.67 in 5.0 mi South 5.8 mph - 0.02 in   Drizzle
9:15 AM 59.0 °F 59.0 °F 100% 29.67 in 10.0 mi SSW 5.8 mph - N/A   Overcast
9:35 AM 60.8 °F 60.8 °F 100% 29.67 in 10.0 mi SSW 10.4 mph - N/A   Mostly Cloudy
9:55 AM 62.6 °F 62.6 °F 100% 29.66 in 10.0 mi SW 11.5 mph 16.1 mph N/A   Scattered Clouds
10:15 AM 62.6 °F 60.8 °F 94% 29.65 in 10.0 mi SSW 13.8 mph 19.6 mph N/A   Scattered Clouds
10:35 AM 64.4 °F 60.8 °F 88% 29.65 in 10.0 mi SSW 15.0 mph - N/A   Scattered Clouds
10:55 AM 68.0 °F 59.0 °F 73% 29.64 in 10.0 mi SW 11.5 mph 24.2 mph N/A   Clear
11:15 AM 68.0 °F 59.0 °F 73% 29.64 in 10.0 mi SW 17.3 mph 25.3 mph N/A   Scattered Clouds
11:35 AM 69.8 °F 59.0 °F 68% 29.62 in 10.0 mi SW 15.0 mph 26.5 mph N/A   Mostly Cloudy
11:55 AM 69.8 °F 59.0 °F 68% 29.61 in 10.0 mi SW 10.4 mph 24.2 mph N/A   Scattered Clouds
12:15 PM 71.6 °F 59.0 °F 64% 29.60 in 10.0 mi SW 19.6 mph 25.3 mph N/A   Scattered Clouds
12:35 PM 71.6 °F 59.0 °F 64% 29.59 in 10.0 mi SW 15.0 mph - N/A   Mostly Cloudy
12:55 PM 71.6 °F 59.0 °F 64% 29.58 in 10.0 mi WSW 19.6 mph 24.2 mph N/A   Mostly Cloudy
1:15 PM 71.6 °F 59.0 °F 64% 29.57 in 10.0 mi SW 17.3 mph 29.9 mph N/A   Scattered Clouds
1:35 PM 73.4 °F 59.0 °F 61% 29.56 in 10.0 mi SW 16.1 mph 23.0 mph N/A   Scattered Clouds
1:55 PM 71.6 °F 59.0 °F 64% 29.55 in 10.0 mi WSW 23.0 mph 28.8 mph N/A   Mostly Cloudy
2:15 PM 71.6 °F 59.0 °F 64% 29.54 in 10.0 mi WSW 21.9 mph 28.8 mph N/A   Overcast
2:35 PM 69.8 °F 59.0 °F 68% 29.53 in 10.0 mi West 18.4 mph 28.8 mph N/A   Overcast
2:55 PM 69.8 °F 59.0 °F 68% 29.52 in 10.0 mi WSW 13.8 mph 21.9 mph N/A   Overcast
3:15 PM 69.8 °F 59.0 °F 68% 29.51 in 10.0 mi West 20.7 mph 28.8 mph N/A   Mostly Cloudy
3:35 PM 71.6 °F 59.0 °F 64% 29.50 in 10.0 mi WSW 15.0 mph 26.5 mph N/A   Overcast
3:55 PM 71.6 °F 59.0 °F 64% 29.49 in 10.0 mi WSW 19.6 mph 25.3 mph N/A   Overcast
4:15 PM 71.6 °F 59.0 °F 64% 29.49 in 10.0 mi WSW 23.0 mph 32.2 mph N/A   Mostly Cloudy
4:35 PM 71.6 °F 59.0 °F 64% 29.49 in 10.0 mi West 17.3 mph 24.2 mph N/A   Overcast
4:55 PM 73.4 °F 59.0 °F 61% 29.48 in 10.0 mi SW 17.3 mph 27.6 mph N/A   Mostly Cloudy
5:15 PM 71.6 °F 59.0 °F 64% 29.47 in 10.0 mi SW 16.1 mph 25.3 mph N/A   Mostly Cloudy
5:35 PM 73.4 °F 59.0 °F 61% 29.47 in 10.0 mi WSW 15.0 mph 27.6 mph N/A   Overcast
5:55 PM 73.4 °F 59.0 °F 61% 29.46 in 10.0 mi WSW 15.0 mph 25.3 mph N/A   Mostly Cloudy
6:15 PM 71.6 °F 59.0 °F 64% 29.46 in 10.0 mi WSW 18.4 mph 27.6 mph N/A   Mostly Cloudy
6:35 PM 71.6 °F 59.0 °F 64% 29.46 in 10.0 mi SW 17.3 mph 23.0 mph N/A   Scattered Clouds
6:55 PM 71.6 °F 59.0 °F 64% 29.46 in 10.0 mi SW 16.1 mph 21.9 mph N/A   Scattered Clouds
7:15 PM 68.0 °F 59.0 °F 73% 29.46 in 10.0 mi SSW 10.4 mph 16.1 mph N/A   Scattered Clouds
7:35 PM 69.8 °F 59.0 °F 68% 29.46 in 10.0 mi South 10.4 mph 18.4 mph N/A   Clear
7:55 PM 66.2 °F 59.0 °F 78% 29.46 in 10.0 mi SSW 10.4 mph - N/A   Clear
8:15 PM 64.4 °F 59.0 °F 83% 29.47 in 10.0 mi SSW 11.5 mph - N/A   Clear
8:35 PM 64.4 °F 59.0 °F 83% 29.48 in 10.0 mi SSW 9.2 mph - N/A   Clear
8:55 PM 64.4 °F 59.0 °F 83% 29.48 in 10.0 mi SSW 11.5 mph - N/A   Clear
9:15 PM 64.4 °F 57.2 °F 77% 29.49 in 10.0 mi SW 13.8 mph 18.4 mph N/A   Clear
9:35 PM 64.4 °F 57.2 °F 77% 29.49 in 10.0 mi SSW 11.5 mph - N/A   Clear
9:55 PM 64.4 °F 57.2 °F 77% 29.49 in 10.0 mi SW 15.0 mph 20.7 mph N/A   Clear
10:15 PM 66.2 °F 55.4 °F 68% 29.51 in 10.0 mi WSW 17.3 mph 24.2 mph N/A   Clear
10:35 PM 69.8 °F 55.4 °F 60% 29.54 in 10.0 mi West 23.0 mph 38.0 mph N/A   Mostly Cloudy
10:55 PM 62.6 °F 53.6 °F 72% 29.57 in 10.0 mi WNW 18.4 mph 31.1 mph N/A   Scattered Clouds
11:15 PM 62.6 °F 50.0 °F 63% 29.59 in 10.0 mi West 19.6 mph 26.5 mph N/A   Clear
11:35 PM 60.8 °F 46.4 °F 59% 29.62 in 10.0 mi WNW 29.9 mph 40.3 mph N/A   Mostly Cloudy
11:55 PM 55.4 °F 39.2 °F 54% 29.66 in 10.0 mi NW 26.5 mph 35.7 mph N/A   Scattered Clouds